Location: Demmingen
(48.6757°N, 10.4375°E)
Time: 10:08:05
(UTC+00:00)

DELTA 2 R/B (1) - Pass Details

Date: 23 May 2024
Orbit: 788 x 801 km, 39.6° (Epoch: 15 June)

Event Time Altitude Azimuth Distance (km) Brightness Sun altitude
Exits shadow 00:26:20 32° 170° (S) 1,344 4.3 -18.9°
Drops below altitude 10° 00:30:56 10° 114° (ESE) 2,350 6.0 -18.6°
Sets 00:33:38 0° 104° (ESE) 3,278 6.8 -18.5°
